Location: Boissi�res
(45.2500°N, 2.3667°E)
Time: 15:31:21
(UTC+00:00)

Cosmos 44 Rocket - Pass Details

Date: 03 March 2021
Orbit: 636 x 754 km, 65.1° (Epoch: 19 April)

Event Time Altitude Azimuth Distance (km) Brightness Sun altitude
Rises 18:19:56 0° 325° (NW) 3,209 7.2 -7.7°
Reaches altitude 10° 18:22:21 10° 327° (NNW) 2,285 6.4 -8.1°
Maximum altitude 18:27:37 78° 54° (NE) 774 3.4 -9.1°
Drops below altitude 10° 18:32:49 10° 141° (SE) 2,255 5.6 -10.0°
Sets 18:35:10 0° 143° (SE) 3,164 6.3 -10.4°
